RYR843D EGHH-LEMI

Flight info

Callsign RYR843D
Flight time 1h 57m
Altitude 37000
Route SAM Y8 GWC UN859 SOPIL DCT BALAN DCT LMG DCT PIMQO DCT AGN DCT ANETO DCT POSSY DCT XIMPE DCT RIMES DCT SAURA DCT TATOS DCT PLANA DCT VLC L34 ALT
Aircraft B38M/M-SADE3FGILRWY/SB1

Departure

Time 2026-04-20 14:37
Airport Bournemouth Airport (EGHH)

Arrival

Time 2026-04-20 16:34
Airport Region of Murcia International Airport (LEMI)
Time Latitude Longitude Altitude Speed Heading
2026-04-20 14:23 50.77805 -1.83378 48 ft 0 kts 85°
2026-04-20 14:30 50.77804 -1.83397 48 ft 4 kts 91°
2026-04-20 14:30 50.77809 -1.83437 48 ft 4 kts 117°
2026-04-20 14:30 50.77826 -1.83466 44 ft 4 kts 156°
2026-04-20 14:30 50.77839 -1.83472 45 ft 0 kts 176°
2026-04-20 14:32 50.77824 -1.83471 43 ft 5 kts 176°
2026-04-20 14:32 50.77769 -1.83465 48 ft 11 kts 176°
2026-04-20 14:32 50.77684 -1.83474 48 ft 13 kts 182°
2026-04-20 14:33 50.77592 -1.83518 46 ft 15 kts 224°
2026-04-20 14:33 50.77574 -1.83682 48 ft 17 kts 272°
2026-04-20 14:33 50.77587 -1.83875 48 ft 19 kts 281°
2026-04-20 14:33 50.77618 -1.84086 48 ft 21 kts 284°
2026-04-20 14:34 50.77662 -1.84313 48 ft 23 kts 289°
2026-04-20 14:34 50.77706 -1.84561 48 ft 24 kts 280°
2026-04-20 14:34 50.77750 -1.84827 47 ft 26 kts 297°
2026-04-20 14:34 50.77838 -1.85084 50 ft 27 kts 299°
2026-04-20 14:35 50.77820 -1.85370 48 ft 28 kts 255°
2026-04-20 14:35 50.77774 -1.85642 48 ft 14 kts 254°
2026-04-20 14:35 50.77716 -1.85741 49 ft 8 kts 262°
2026-04-20 14:35 50.77755 -1.85768 48 ft 7 kts 41°
2026-04-20 14:36 50.77760 -1.85751 46 ft 0 kts 73°
2026-04-20 14:36 50.77764 -1.85729 48 ft 16 kts 74°
2026-04-20 14:37 50.77864 -1.85102 51 ft 102 kts 76°
2026-04-20 14:37 50.78106 -1.83604 105 ft 170 kts 78°
2026-04-20 14:37 50.78432 -1.81762 982 ft 178 kts 75°
2026-04-20 14:37 50.78773 -1.79889 1972 ft 179 kts 74°
2026-04-20 14:38 50.79139 -1.77943 2832 ft 192 kts 73°
2026-04-20 14:38 50.79409 -1.75772 3584 ft 214 kts 85°
2026-04-20 14:38 50.79380 -1.73302 4273 ft 237 kts 102°
2026-04-20 14:38 50.78644 -1.70859 5095 ft 255 kts 122°
2026-04-20 14:39 50.77692 -1.68494 6261 ft 256 kts 119°
2026-04-20 14:39 50.76749 -1.66064 7245 ft 264 kts 120°
2026-04-20 14:39 50.75766 -1.63541 8102 ft 275 kts 120°
2026-04-20 14:39 50.74748 -1.60927 8990 ft 285 kts 120°
2026-04-20 14:40 50.73691 -1.58220 9844 ft 294 kts 121°
2026-04-20 14:40 50.72359 -1.55728 10663 ft 303 kts 141°
2026-04-20 14:40 50.71400 -1.54648 11008 ft 311 kts 147°
2026-04-20 14:40 50.71115 -1.54348 11103 ft 314 kts 146°
2026-04-20 14:41 50.69274 -1.52328 11628 ft 332 kts 145°
2026-04-20 14:41 50.67338 -1.50163 12092 ft 350 kts 145°
2026-04-20 14:41 50.65307 -1.47871 12521 ft 369 kts 144°
2026-04-20 14:41 50.63178 -1.45460 12957 ft 384 kts 144°
2026-04-20 14:42 50.60971 -1.42964 13505 ft 394 kts 144°
2026-04-20 14:42 50.58740 -1.40447 14288 ft 397 kts 145°
2026-04-20 14:42 50.56474 -1.37892 14871 ft 404 kts 145°
2026-04-20 14:42 50.54182 -1.35312 15498 ft 408 kts 145°
2026-04-20 14:43 50.51855 -1.32696 16116 ft 413 kts 146°
2026-04-20 14:43 50.49499 -1.30050 16721 ft 418 kts 146°
2026-04-20 14:43 50.47151 -1.27417 17317 ft 423 kts 146°
2026-04-20 14:43 50.44739 -1.24715 17908 ft 428 kts 146°
2026-04-20 14:44 50.42298 -1.21984 18491 ft 433 kts 146°
2026-04-20 14:44 50.39832 -1.19229 18995 ft 438 kts 147°
2026-04-20 14:44 50.37341 -1.16449 19498 ft 442 kts 147°
2026-04-20 14:44 50.34824 -1.13645 19997 ft 446 kts 147°
2026-04-20 14:45 50.32289 -1.10824 20483 ft 450 kts 147°
2026-04-20 14:45 50.29719 -1.07968 20949 ft 454 kts 147°
2026-04-20 14:45 50.27129 -1.05093 21443 ft 458 kts 147°
2026-04-20 14:45 50.24517 -1.02199 21918 ft 462 kts 148°
2026-04-20 14:46 50.21880 -0.99279 22371 ft 467 kts 148°
2026-04-20 14:46 50.19218 -0.96337 22836 ft 471 kts 148°
2026-04-20 14:46 50.16536 -0.93377 23278 ft 475 kts 148°
2026-04-20 14:46 50.13830 -0.90395 23724 ft 479 kts 148°
2026-04-20 14:47 50.11095 -0.87385 24108 ft 482 kts 148°
2026-04-20 14:47 50.08344 -0.84361 24516 ft 485 kts 148°
2026-04-20 14:47 50.05583 -0.81331 24917 ft 487 kts 148°
2026-04-20 14:48 50.00019 -0.75239 25706 ft 491 kts 149°
2026-04-20 14:48 49.97221 -0.72181 26089 ft 494 kts 149°
2026-04-20 14:48 49.94401 -0.69103 26462 ft 496 kts 149°
2026-04-20 14:48 49.91570 -0.66019 26846 ft 498 kts 149°
2026-04-20 14:49 49.89692 -0.63975 27069 ft 500 kts 149°
2026-04-20 14:49 49.86836 -0.60872 27434 ft 502 kts 149°
2026-04-20 14:49 49.83973 -0.57765 27789 ft 504 kts 149°
2026-04-20 14:49 49.81096 -0.54647 28142 ft 506 kts 149°
2026-04-20 14:50 49.78205 -0.51520 28472 ft 508 kts 149°
2026-04-20 14:50 49.75301 -0.48381 28808 ft 510 kts 149°
2026-04-20 14:50 49.72389 -0.45241 29193 ft 511 kts 149°
2026-04-20 14:50 49.69474 -0.42102 29684 ft 509 kts 149°
2026-04-20 14:51 49.66571 -0.38980 30167 ft 508 kts 149°
2026-04-20 14:51 49.63677 -0.35872 30563 ft 507 kts 149°
2026-04-20 14:51 49.60790 -0.32776 30923 ft 506 kts 149°
2026-04-20 14:51 49.59540 -0.31437 31077 ft 506 kts 149°
2026-04-20 14:52 49.57975 -0.29762 31239 ft 505 kts 149°
2026-04-20 14:53 49.55082 -0.26669 31556 ft 506 kts 149°
2026-04-20 14:53 49.52199 -0.23591 31942 ft 504 kts 149°
2026-04-20 14:53 49.49318 -0.20520 32302 ft 504 kts 149°
2026-04-20 14:53 49.46438 -0.17454 32661 ft 503 kts 148°
2026-04-20 14:54 49.43561 -0.14396 33033 ft 502 kts 148°
2026-04-20 14:54 49.40695 -0.11354 33416 ft 500 kts 148°
2026-04-20 14:54 49.37836 -0.08323 33798 ft 499 kts 148°
2026-04-20 14:54 49.34987 -0.05308 34187 ft 497 kts 148°
2026-04-20 14:55 49.32145 -0.02305 34521 ft 495 kts 148°
2026-04-20 14:55 49.29309 0.00686 34817 ft 494 kts 148°
2026-04-20 14:55 49.26484 0.03664 35102 ft 494 kts 148°
2026-04-20 14:55 49.23656 0.06640 35406 ft 493 kts 148°
2026-04-20 14:56 49.20833 0.09607 35695 ft 492 kts 148°
2026-04-20 14:56 49.18011 0.12568 35976 ft 491 kts 148°
2026-04-20 14:56 49.15192 0.15523 36245 ft 491 kts 148°
2026-04-20 14:56 49.12382 0.18464 36510 ft 490 kts 148°
2026-04-20 14:57 49.09572 0.21401 36765 ft 489 kts 148°
2026-04-20 14:57 49.06760 0.24335 37007 ft 489 kts 148°
2026-04-20 14:57 49.03951 0.27263 37158 ft 490 kts 148°
2026-04-20 14:58 48.98300 0.33141 37153 ft 493 kts 149°
2026-04-20 14:58 48.92669 0.38981 37153 ft 493 kts 149°
2026-04-20 14:59 48.86967 0.44879 37150 ft 493 kts 149°
2026-04-20 14:59 48.81286 0.50731 37152 ft 493 kts 150°
2026-04-20 14:59 48.78290 0.53015 37137 ft 482 kts 167°
2026-04-20 15:00 48.75071 0.54400 37139 ft 483 kts 168°
2026-04-20 15:00 48.68596 0.57104 37144 ft 483 kts 169°
2026-04-20 15:01 48.62097 0.59676 37144 ft 483 kts 170°
2026-04-20 15:01 48.55592 0.62216 37143 ft 483 kts 170°
2026-04-20 15:02 48.49098 0.64825 37138 ft 483 kts 169°
2026-04-20 15:02 48.42611 0.67458 37127 ft 483 kts 169°
2026-04-20 15:03 48.36121 0.70083 37133 ft 483 kts 169°
2026-04-20 15:03 48.29623 0.72704 37132 ft 483 kts 169°
2026-04-20 15:04 48.23132 0.75289 37120 ft 483 kts 170°
2026-04-20 15:04 48.16638 0.77849 37116 ft 483 kts 170°
2026-04-20 15:05 48.10145 0.80402 37115 ft 483 kts 170°
2026-04-20 15:05 48.03644 0.82951 37109 ft 482 kts 170°
2026-04-20 15:06 47.97652 0.85295 37100 ft 482 kts 170°
2026-04-20 15:07 47.92226 0.87413 37100 ft 483 kts 170°
2026-04-20 15:08 47.85736 0.89940 37101 ft 483 kts 170°
2026-04-20 15:08 47.82687 0.91124 37092 ft 482 kts 170°
2026-04-20 15:09 47.76197 0.93639 37088 ft 482 kts 170°
2026-04-20 15:09 47.69705 0.96148 37089 ft 482 kts 170°
2026-04-20 15:10 47.63221 0.98648 37075 ft 481 kts 170°
2026-04-20 15:10 47.56740 1.01141 37082 ft 481 kts 170°
2026-04-20 15:11 47.50264 1.03625 37080 ft 481 kts 170°
2026-04-20 15:11 47.43777 1.06041 37065 ft 477 kts 176°
2026-04-20 15:11 47.40518 1.06297 37088 ft 466 kts 187°
2026-04-20 15:12 47.37258 1.06244 37065 ft 469 kts 185°
2026-04-20 15:12 47.30730 1.06152 37074 ft 469 kts 186°
2026-04-20 15:13 47.24200 1.06004 37070 ft 469 kts 186°
2026-04-20 15:13 47.17678 1.05852 37066 ft 469 kts 186°
2026-04-20 15:14 47.11145 1.05699 37065 ft 469 kts 186°
2026-04-20 15:14 47.04613 1.05547 37060 ft 469 kts 186°
2026-04-20 15:15 46.98094 1.05279 37057 ft 469 kts 187°
2026-04-20 15:15 46.91577 1.05003 37056 ft 469 kts 187°
2026-04-20 15:16 46.85054 1.04729 37052 ft 468 kts 187°
2026-04-20 15:16 46.78585 1.04458 37046 ft 468 kts 187°
2026-04-20 15:17 46.72071 1.04185 37037 ft 468 kts 187°
2026-04-20 15:17 46.65567 1.03914 37041 ft 468 kts 187°
2026-04-20 15:18 46.59057 1.03643 37033 ft 467 kts 187°
2026-04-20 15:18 46.52561 1.03380 37025 ft 467 kts 186°
2026-04-20 15:19 46.46053 1.03317 37022 ft 468 kts 186°
2026-04-20 15:19 46.39547 1.03242 37020 ft 468 kts 186°
2026-04-20 15:20 46.33041 1.03164 37016 ft 467 kts 186°
2026-04-20 15:20 46.26535 1.03087 37010 ft 467 kts 186°
2026-04-20 15:21 46.20035 1.03010 37004 ft 467 kts 186°
2026-04-20 15:21 46.13542 1.02933 37001 ft 467 kts 186°
2026-04-20 15:22 46.07047 1.02856 36991 ft 467 kts 186°
2026-04-20 15:22 46.00564 1.02636 36980 ft 460 kts 195°
2026-04-20 15:23 45.94346 1.00836 37014 ft 458 kts 195°
2026-04-20 15:23 45.88055 0.99310 36989 ft 458 kts 195°
2026-04-20 15:24 45.81757 0.97834 36987 ft 458 kts 195°
2026-04-20 15:24 45.75460 0.96367 36985 ft 458 kts 195°
2026-04-20 15:25 45.69161 0.94903 36980 ft 458 kts 195°
2026-04-20 15:25 45.62871 0.93444 36967 ft 458 kts 195°
2026-04-20 15:26 45.56578 0.91988 36957 ft 458 kts 195°
2026-04-20 15:26 45.50288 0.90536 36948 ft 458 kts 195°
2026-04-20 15:27 45.44001 0.89088 36942 ft 458 kts 194°
2026-04-20 15:27 45.37710 0.87642 36937 ft 458 kts 194°
2026-04-20 15:28 45.31420 0.86200 36935 ft 458 kts 194°
2026-04-20 15:28 45.25130 0.84761 36937 ft 458 kts 194°
2026-04-20 15:29 45.18837 0.83324 36937 ft 458 kts 194°
2026-04-20 15:29 45.12550 0.81892 36938 ft 458 kts 194°
2026-04-20 15:30 45.06263 0.80464 36932 ft 457 kts 194°
2026-04-20 15:30 44.99983 0.79040 36929 ft 457 kts 194°
2026-04-20 15:31 44.93698 0.77618 36937 ft 457 kts 194°
2026-04-20 15:31 44.87417 0.76200 36934 ft 457 kts 194°
2026-04-20 15:32 44.81136 0.74785 36935 ft 457 kts 194°
2026-04-20 15:32 44.74859 0.73375 36939 ft 457 kts 194°
2026-04-20 15:33 44.68579 0.71966 36933 ft 457 kts 194°
2026-04-20 15:33 44.63367 0.70800 36936 ft 457 kts 194°
2026-04-20 15:34 44.56072 0.69171 36929 ft 456 kts 194°
2026-04-20 15:34 44.49799 0.67773 36919 ft 456 kts 194°
2026-04-20 15:35 44.44553 0.66606 36922 ft 456 kts 194°
2026-04-20 15:35 44.38286 0.65216 36917 ft 456 kts 194°
2026-04-20 15:36 44.32029 0.63831 36910 ft 455 kts 194°
2026-04-20 15:36 44.25773 0.62448 36911 ft 455 kts 194°
2026-04-20 15:37 44.19520 0.61070 36913 ft 455 kts 194°
2026-04-20 15:37 44.13269 0.59694 36906 ft 455 kts 193°
2026-04-20 15:38 44.07021 0.58323 36910 ft 454 kts 193°
2026-04-20 15:38 44.00778 0.56955 36912 ft 454 kts 193°
2026-04-20 15:39 43.94540 0.55592 36916 ft 454 kts 193°
2026-04-20 15:39 43.88307 0.54232 36915 ft 453 kts 193°
2026-04-20 15:40 43.82078 0.52877 36917 ft 453 kts 193°
2026-04-20 15:40 43.75890 0.51533 36920 ft 453 kts 193°
2026-04-20 15:41 43.69625 0.50175 36913 ft 453 kts 193°
2026-04-20 15:41 43.63440 0.48837 36924 ft 453 kts 193°
2026-04-20 15:42 43.57164 0.47482 36919 ft 454 kts 193°
2026-04-20 15:42 43.50954 0.46145 36925 ft 455 kts 193°
2026-04-20 15:43 43.44701 0.44801 36928 ft 454 kts 193°
2026-04-20 15:43 43.38463 0.43463 36921 ft 454 kts 193°
2026-04-20 15:44 43.32234 0.42130 36940 ft 453 kts 193°
2026-04-20 15:44 43.26002 0.40799 36932 ft 453 kts 193°
2026-04-20 15:45 43.19769 0.39470 36942 ft 454 kts 193°
2026-04-20 15:45 43.13532 0.38143 36954 ft 453 kts 193°
2026-04-20 15:46 43.07306 0.36821 36955 ft 453 kts 193°
2026-04-20 15:46 43.01073 0.35501 36965 ft 453 kts 193°
2026-04-20 15:47 42.94844 0.34184 36983 ft 453 kts 193°
2026-04-20 15:47 42.88624 0.32872 36981 ft 452 kts 193°
2026-04-20 15:48 42.82373 0.31556 36975 ft 457 kts 193°
2026-04-20 15:48 42.76074 0.30231 36972 ft 459 kts 193°
2026-04-20 15:49 42.69750 0.28906 36979 ft 460 kts 192°
2026-04-20 15:49 42.63412 0.27580 36985 ft 463 kts 192°
2026-04-20 15:50 42.57037 0.26249 36972 ft 464 kts 192°
2026-04-20 15:50 42.50645 0.24917 36971 ft 465 kts 192°
2026-04-20 15:51 42.44243 0.23585 36955 ft 466 kts 192°
2026-04-20 15:51 42.37832 0.22255 36946 ft 466 kts 192°
2026-04-20 15:52 42.31424 0.20928 36939 ft 466 kts 192°
2026-04-20 15:52 42.25009 0.19602 36932 ft 467 kts 192°
2026-04-20 15:53 42.15441 0.17630 36918 ft 465 kts 193°
2026-04-20 15:53 42.09038 0.16314 36908 ft 465 kts 193°
2026-04-20 15:54 42.02603 0.15262 36910 ft 466 kts 190°
2026-04-20 15:54 41.96207 0.14308 36903 ft 463 kts 190°
2026-04-20 15:55 41.89842 0.13349 36903 ft 457 kts 191°
2026-04-20 15:55 41.83541 0.12400 36889 ft 455 kts 191°
2026-04-20 15:56 41.77264 0.11458 36895 ft 454 kts 191°
2026-04-20 15:56 41.70981 0.10515 36889 ft 455 kts 191°
2026-04-20 15:57 41.64696 0.09575 36886 ft 454 kts 191°
2026-04-20 15:57 41.58416 0.08637 36887 ft 453 kts 191°
2026-04-20 15:58 41.52146 0.07702 36890 ft 454 kts 191°
2026-04-20 15:58 41.45868 0.06769 36889 ft 454 kts 191°
2026-04-20 15:59 41.39589 0.05836 36889 ft 454 kts 191°
2026-04-20 15:59 41.33305 0.04905 36893 ft 454 kts 191°
2026-04-20 16:00 41.27028 0.03977 36897 ft 453 kts 191°
2026-04-20 16:00 41.20775 0.03054 36897 ft 450 kts 191°
2026-04-20 16:01 41.14565 0.02138 36905 ft 449 kts 191°
2026-04-20 16:01 41.08355 0.01228 36902 ft 449 kts 191°
2026-04-20 16:02 41.02148 0.00321 36908 ft 449 kts 190°
2026-04-20 16:02 40.95946 -0.00583 36911 ft 448 kts 190°
2026-04-20 16:03 40.89745 -0.01485 36916 ft 448 kts 190°
2026-04-20 16:03 40.83583 -0.02380 36930 ft 448 kts 190°
2026-04-20 16:04 40.77346 -0.03284 36935 ft 448 kts 190°
2026-04-20 16:04 40.71193 -0.04174 36934 ft 448 kts 190°
2026-04-20 16:05 40.65005 -0.05068 36945 ft 447 kts 190°
2026-04-20 16:05 40.58814 -0.05960 36947 ft 447 kts 190°
2026-04-20 16:06 40.52796 -0.07610 36959 ft 441 kts 200°
2026-04-20 16:06 40.46916 -0.09921 36961 ft 441 kts 200°
2026-04-20 16:07 40.41036 -0.12246 36968 ft 441 kts 200°
2026-04-20 16:07 40.35159 -0.14569 36964 ft 441 kts 200°
2026-04-20 16:08 40.29279 -0.16888 36969 ft 441 kts 200°
2026-04-20 16:08 40.23401 -0.19203 36965 ft 441 kts 200°
2026-04-20 16:09 40.17519 -0.21515 36964 ft 441 kts 200°
2026-04-20 16:09 40.11637 -0.23822 36962 ft 441 kts 200°
2026-04-20 16:10 40.05748 -0.26128 36960 ft 441 kts 200°
2026-04-20 16:10 39.99904 -0.28412 36949 ft 442 kts 200°
2026-04-20 16:11 39.93985 -0.30720 36940 ft 441 kts 200°
2026-04-20 16:11 39.88137 -0.32997 36934 ft 441 kts 200°
2026-04-20 16:12 39.82221 -0.35297 36940 ft 441 kts 200°
2026-04-20 16:12 39.76342 -0.37579 36934 ft 441 kts 200°
2026-04-20 16:13 39.70462 -0.39857 36937 ft 441 kts 200°
2026-04-20 16:13 39.64590 -0.42128 36939 ft 441 kts 200°
2026-04-20 16:14 39.58750 -0.44383 36934 ft 441 kts 200°
2026-04-20 16:14 39.52871 -0.46648 36935 ft 441 kts 200°
2026-04-20 16:15 39.46898 -0.48395 36946 ft 445 kts 186°
2026-04-20 16:15 39.40698 -0.48863 36934 ft 447 kts 187°
2026-04-20 16:16 39.34488 -0.49326 36897 ft 445 kts 187°
2026-04-20 16:16 39.31414 -0.49550 36321 ft 442 kts 187°
2026-04-20 16:16 39.28326 -0.49774 35422 ft 447 kts 187°
2026-04-20 16:17 39.25209 -0.49999 34679 ft 449 kts 187°
2026-04-20 16:17 39.22092 -0.50225 34032 ft 448 kts 187°
2026-04-20 16:17 39.18978 -0.50448 33240 ft 450 kts 187°
2026-04-20 16:17 39.15848 -0.50674 32446 ft 451 kts 186°
2026-04-20 16:18 39.12714 -0.50900 31695 ft 451 kts 186°
2026-04-20 16:18 39.09574 -0.51125 30920 ft 453 kts 186°
2026-04-20 16:18 39.06414 -0.51353 30087 ft 456 kts 186°
2026-04-20 16:18 39.03237 -0.51582 29100 ft 459 kts 186°
2026-04-20 16:19 39.00042 -0.51811 28185 ft 461 kts 185°
2026-04-20 16:19 38.96876 -0.52038 27294 ft 462 kts 185°
2026-04-20 16:19 38.93658 -0.52269 26312 ft 466 kts 185°
2026-04-20 16:19 38.90412 -0.52501 25320 ft 469 kts 185°
2026-04-20 16:20 38.87133 -0.52736 24268 ft 474 kts 185°
2026-04-20 16:20 38.83823 -0.52972 23281 ft 477 kts 185°
2026-04-20 16:20 38.80539 -0.53207 22736 ft 467 kts 185°
2026-04-20 16:20 38.77336 -0.53435 22208 ft 457 kts 185°
2026-04-20 16:21 38.75198 -0.53588 21689 ft 454 kts 185°
2026-04-20 16:21 38.72098 -0.53809 21051 ft 449 kts 185°
2026-04-20 16:21 38.68963 -0.54032 20365 ft 444 kts 185°
2026-04-20 16:21 38.65901 -0.54249 19719 ft 438 kts 185°
2026-04-20 16:22 38.62870 -0.54465 19096 ft 433 kts 185°
2026-04-20 16:22 38.59918 -0.54674 18484 ft 429 kts 185°
2026-04-20 16:22 38.56951 -0.54884 17828 ft 424 kts 185°
2026-04-20 16:22 38.53989 -0.55094 17290 ft 416 kts 185°
2026-04-20 16:23 38.51164 -0.55294 16746 ft 410 kts 185°
2026-04-20 16:23 38.48333 -0.55494 16143 ft 406 kts 185°
2026-04-20 16:23 38.45526 -0.55693 15549 ft 401 kts 185°
2026-04-20 16:23 38.42775 -0.56074 14969 ft 395 kts 194°
2026-04-20 16:24 38.40210 -0.57228 14409 ft 389 kts 207°
2026-04-20 16:24 38.37796 -0.58747 13857 ft 385 kts 207°
2026-04-20 16:24 38.35393 -0.60223 13242 ft 382 kts 207°
2026-04-20 16:24 38.33004 -0.61675 12646 ft 379 kts 206°
2026-04-20 16:25 38.30633 -0.63106 12049 ft 376 kts 206°
2026-04-20 16:25 38.28281 -0.64521 11456 ft 370 kts 206°
2026-04-20 16:25 38.26006 -0.65889 10925 ft 354 kts 206°
2026-04-20 16:25 38.23817 -0.67204 10369 ft 341 kts 206°
2026-04-20 16:26 38.21706 -0.68472 9825 ft 331 kts 206°
2026-04-20 16:26 38.19636 -0.69712 9254 ft 328 kts 205°
2026-04-20 16:26 38.17566 -0.70950 8688 ft 329 kts 205°
2026-04-20 16:26 38.15491 -0.72190 8127 ft 330 kts 205°
2026-04-20 16:27 38.13414 -0.73431 7586 ft 330 kts 205°
2026-04-20 16:27 38.11362 -0.74656 7053 ft 320 kts 205°
2026-04-20 16:27 38.09407 -0.75919 6544 ft 312 kts 211°
2026-04-20 16:27 38.07669 -0.77530 6208 ft 306 kts 219°
2026-04-20 16:28 38.06093 -0.79289 5966 ft 299 kts 223°
2026-04-20 16:28 38.04628 -0.81092 5814 ft 288 kts 224°
2026-04-20 16:28 38.03236 -0.82868 5653 ft 279 kts 225°
2026-04-20 16:28 38.01912 -0.84574 5571 ft 262 kts 225°
2026-04-20 16:29 38.00674 -0.86177 5433 ft 249 kts 225°
2026-04-20 16:29 37.99466 -0.87742 5273 ft 248 kts 225°
2026-04-20 16:29 37.98264 -0.89295 5098 ft 247 kts 225°
2026-04-20 16:29 37.97080 -0.90827 4826 ft 246 kts 225°
2026-04-20 16:30 37.95873 -0.92387 4519 ft 243 kts 225°
2026-04-20 16:30 37.94711 -0.93893 4246 ft 235 kts 225°
2026-04-20 16:30 37.93581 -0.95358 3944 ft 230 kts 225°
2026-04-20 16:30 37.92489 -0.96769 3659 ft 225 kts 224°
2026-04-20 16:31 37.91402 -0.98171 3381 ft 223 kts 224°
2026-04-20 16:31 37.90329 -0.99557 3092 ft 212 kts 224°
2026-04-20 16:31 37.89361 -1.00812 2851 ft 189 kts 223°
2026-04-20 16:31 37.88503 -1.01919 2657 ft 165 kts 223°
2026-04-20 16:32 37.87750 -1.02892 2450 ft 146 kts 222°
2026-04-20 16:32 37.87080 -1.03759 2276 ft 130 kts 220°
2026-04-20 16:32 37.86451 -1.04567 2012 ft 142 kts 222°
2026-04-20 16:32 37.85663 -1.05543 1929 ft 170 kts 221°
2026-04-20 16:33 37.84864 -1.06533 1703 ft 159 kts 222°
2026-04-20 16:33 37.84093 -1.07551 1452 ft 162 kts 224°
2026-04-20 16:33 37.83336 -1.08609 1151 ft 162 kts 224°
2026-04-20 16:33 37.82531 -1.09639 933 ft 161 kts 220°
2026-04-20 16:34 37.81734 -1.10628 767 ft 156 kts 224°
2026-04-20 16:34 37.81013 -1.11584 659 ft 142 kts 222°
2026-04-20 16:34 37.80390 -1.12375 651 ft 104 kts 228°
2026-04-20 16:34 37.80030 -1.12833 646 ft 41 kts 229°
2026-04-20 16:35 37.79925 -1.13054 649 ft 24 kts 248°
2026-04-20 16:35 37.79890 -1.13202 656 ft 11 kts 262°
2026-04-20 16:35 37.79933 -1.13253 653 ft 11 kts 10°
2026-04-20 16:35 37.80006 -1.13186 650 ft 15 kts 45°
2026-04-20 16:36 37.80073 -1.13093 651 ft 11 kts 39°
2026-04-20 16:36 37.80147 -1.13119 649 ft 13 kts 315°
2026-04-20 16:36 37.80195 -1.13162 649 ft 8 kts 356°
2026-04-20 16:36 37.80247 -1.13125 649 ft 8 kts 40°
2026-04-20 16:37 37.80286 -1.13072 649 ft 7 kts 53°
2026-04-20 16:37 37.80319 -1.13025 651 ft 8 kts 46°
2026-04-20 16:37 37.80355 -1.12981 649 ft 5 kts 44°
2026-04-20 16:37 37.80388 -1.12960 649 ft 5 kts 343°
2026-04-20 16:38 37.80417 -1.12993 650 ft 5 kts 314°
2026-04-20 16:38 37.80429 -1.13008 649 ft 2 kts 315°
2026-04-20 16:38 37.80436 -1.13016 649 ft 0 kts 315°